• MPC Preparation (Info)

  • MPEC 2024-E27 : 2024 EM

    The following Minor Planet Electronic Circular may be linked-to from your own Web pages, but must not otherwise be redistributed electronically.

    A form allowing access to any MPEC is at the bottom of this page.


    Read MPEC 2024-E26 Read MPEC 2024-E28


    M.P.E.C. 2024-E27                                 Issued 2024 March 4, 11:43 UT
    
         The Minor Planet Electronic Circulars contain information on unusual
             minor planets, routine data on comets and natural satellites,
             and occasional editorial announcements.  They are published
        on behalf of Division F of the International Astronomical Union by the
              Minor Planet Center, Smithsonian Astrophysical Observatory,
                              Cambridge, MA 02138, U.S.A.
    			  
                 Prepared using the Tamkin Foundation Computer Network
    
                                  MPC@CFA.HARVARD.EDU
                URL https://www.minorplanetcenter.net/    ISSN 1523-6714
    
                                     2024 EM                                 
    
    
    Observations:
         K24E00M* C2024 03 01.46039013 01 00.178+31 05 44.02         21.81wXEE027F52
         K24E00M  C2024 03 01.47215513 01 00.659+31 05 57.60         21.46wXEE027F52
         K24E00M  C2024 03 01.48390213 01 01.108+31 06 11.88         21.43wXEE027F52
         K24E00M  C2024 03 01.56116113 01 04.024+31 07 41.00         21.47GVEE027F52
         K24E00M  C2024 03 01.56180813 01 04.038+31 07 41.90         20.90GVEE027F52
         K24E00M KB2024 03 02.21142 13 01 35.417+31 20 02.15         20.9 RZEE027H36
         K24E00M KB2024 03 02.23416 13 01 36.235+31 20 29.87         21.2 RZEE027H36
         K24E00M  C2024 03 02.30611913 01 39.319+31 21 55.79         21.3 GVEE027H01
         K24E00M  C2024 03 02.31338413 01 39.598+31 22 04.47         21.1 GVEE027H01
         K24E00M  C2024 03 02.31947313 01 39.817+31 22 11.61         21.2 GVEE027H01
         K24E00M  C2024 03 02.32760413 01 40.146+31 22 21.50         21.2 GVEE027H01
         K24E00M  C2024 03 02.45283113 01 45.956+31 24 50.58         21.18GVEE027F52
         K24E00M  C2024 03 02.45365213 01 45.988+31 24 51.49         21.18GVEE027F52
         K24E00M KC2024 03 03.31633613 02 23.56 +31 41 25.7          21.4 GVEE027H21
         K24E00M KC2024 03 03.32193513 02 23.75 +31 41 32.1          21.1 GVEE027H21
         K24E00M KC2024 03 03.32753213 02 23.98 +31 41 38.7          21.2 GVEE027H21
         K24E00M KC2024 03 04.27835813 03 04.53 +32 00 03.4          21.4 GVEE027H21
         K24E00M KC2024 03 04.28396013 03 04.74 +32 00 09.9          21.1 GVEE027H21
         K24E00M KC2024 03 04.28993013 03 04.97 +32 00 16.9          21.6 GVEE027H21
    
    Observer details:
    F52 Pan-STARRS 2, Haleakala.  Observers J. Herman, T. Lowe, P. Minguez, A.
        Schultz, I. Smith.  Measurers K. Chambers, T. de Boer, J. Fairlamb, H.
        Gao, M. Huber, C.-C. Lin, E. Magnier, Y. Ramanjooloo, R. Wainscoat, R.
        Weryk.  1.8-m Ritchey-Chretien + CCD.
    H01 Magdalena Ridge Observatory, Socorro.  Observers W. H. Ryan, E. V. Ryan.
        Measurer W. H. Ryan.  2.4-m f/8.9 Ritchey-Chretien + CCD.
    H21 Astronomical Research Observatory, Westfield.  Observer R. Holmes.
        Measurers T. Linder, R. Holmes, L. Horn.  0.76-m f/3.0 astrograph + CCD.
    H36 Sandlot Observatory, Scranton.  Observer G. Hug.  0.56-m f/4.8 reflector +
        CMO.
    
    Orbital elements:
    2024 EM                                                  Earth MOID = 0.0868 AU
    Epoch 2024 Mar. 31.0 TT = JDT 2460400.5                 Veres                   
    M 337.53928              (2000.0)            P               Q                  
    n   0.41734884     Peri.  171.42574     -0.52717324     +0.83306827             
    a   1.7733859      Node    66.60435     -0.79006646     -0.40790369             
    e   0.3809831      Incl.   10.52125     -0.31286315     -0.37364666             
    P   2.36           H   21.44          G   0.15           U   9                  
    Residuals in seconds of arc
    240301 F52  0.4-  0.4-    240302 H01  0.0   0.0     240303 H21  0.2-  0.2-
    240301 F52  0.0   0.6-    240302 H01  0.0   0.1+    240303 H21  0.2+  0.1-
    240301 F52  0.0   0.1-    240302 H01  0.1-  0.0     240304 H21  0.3-  0.1+
    240301 F52  0.0   0.4-    240302 H01  0.2+  0.3+    240304 H21  0.0   0.0
    240301 F52  0.1-  0.2-    240302 F52  0.0   0.2+    240304 H21  0.4+  0.0
    240302 H36  1.2+  0.3-    240302 F52  0.1+  0.1+
    240302 H36  0.2-  0.2+    240303 H21  0.1-  0.1-
    
    Ephemeris:
    2024 EM                  a,e,i = 1.77, 0.38, 11                  q = 1.0978
    Date    TT    R. A. (2000) Decl.     Delta      r    Elong.  Phase     V
    2024 02 03    12 29 30.3 +23 41 05   0.6550  1.5010   131.3    29.5    22.7
    ...
    2024 02 18    12 48 55.8 +27 19 09   0.5233  1.4217   138.2    27.6    22.0
    ...
    2024 02 26    12 57 10.9 +29 41 15   0.4640  1.3801   140.6    27.1    21.7
    ...
    2024 03 03    13 02 09.6 +31 35 21   0.4243  1.3495   141.5    27.2    21.4
    2024 03 04    13 02 52.5 +31 54 42   0.4181  1.3445   141.6    27.3    21.4
    2024 03 05    13 03 33.3 +32 14 06   0.4120  1.3395   141.6    27.4    21.4
    ...
    2024 03 11    13 06 52.9 +34 09 50   0.3774  1.3100   141.5    28.2    21.2
    ...
    2024 03 19    13 09 14.7 +36 33 52   0.3365  1.2721   140.1    30.1    20.9
    ...
    2024 04 03    13 07 47.3 +39 38 25   0.2726  1.2077   134.9    35.9    20.5
    
    M. P. C. Staff               (C) Copyright 2024 MPC           M.P.E.C. 2024-E27
    


    Read MPEC 2024-E26 Read MPEC 2024-E28


    MPEC number:

    Enter an MPEC number in one of the following forms:

    • 1997-B01 (the full form)
    • J97B01 (the packed version of the full form)
    • B01 (the abbreviated form)